QPF
0.00 0.00 0.00 0.00 0.00 0.00 0.00 0.00 0.00 0.00 0.02 0.03 0.04 0.03 0.01 0.01 0.02 0.03 0.03 0.03 0.02 0.02 0.02 0.01 0.00 0.00 0.00 0.00 0.00 0.00 0.00 0.00 0.00 0.00 0.00 0.00 0.00 0.00 0.00 0.00 0.00 0.00 0.00
0.00 0.00 0.00 0.00 0.00 0.00 0.00 0.00 0.00 0.00 0.00 0.01 0.01 0.01 0.02 0.03 0.04 0.06 0.06 0.05 0.05 0.06 0.03 0.02 0.02 0.01 0.00 0.00 0.00 0.00 0.00 0.00 0.00 0.00 0.00 0.00 0.00 0.00 0.00 0.00 0.00 0.00 0.00
0.00 0.00 0.00 0.00 0.00 0.00 0.00 0.00 0.00 0.00 0.00 0.01 0.02 0.04 0.06 0.06 0.04 0.03 0.02 0.02 0.05 0.08 0.06 0.05 0.04 0.03 0.01 0.00 0.00 0.00 0.00 0.00 0.00 0.00 0.00 0.00 0.00 0.00 0.00 0.00 0.00 0.00 0.00
0.00 0.00 0.00 0.00 0.00 0.00 0.00 0.00 0.00 0.00 0.00 0.00 0.02 0.02 0.02 0.01 0.01 0.01 0.02 0.05 0.08 0.10 0.09 0.08 0.07 0.04 0.02 0.01 0.01 0.00 0.00 0.00 0.00 0.00 0.00 0.00 0.00 0.00 0.00 0.00 0.00 0.00 0.00
0.00 0.00 0.00 0.00 0.00 0.00 0.00 0.00 0.00 0.00 0.00 0.01 0.01 0.02 0.01 0.01 0.01 0.02 0.03 0.05 0.07 0.09 0.09 0.10 0.08 0.05 0.03 0.02 0.01 0.00 0.00 0.00 0.00 0.00 0.00 0.00 0.00 0.00 0.00 0.00 0.00 0.00 0.00
0.00 0.00 0.00 0.00 0.00 0.00 0.00 0.00 0.00 0.00 0.00 0.00 0.01 0.01 0.01 0.01 0.02 0.03 0.04 0.05 0.06 0.07 0.08 0.09 0.09 0.08 0.06 0.04 0.02 0.01 0.00 0.00 0.00 0.00 0.00 0.00 0.00 0.00 0.00 0.00 0.00 0.00 0.00
0.00 0.00 0.00 0.00 0.00 0.00 0.00 0.00 0.00 0.00 0.00 0.00 0.00 0.01 0.01 0.01 0.02 0.03 0.05 0.05 0.05 0.04 0.05 0.07 0.08 0.09 0.09 0.08 0.05 0.03 0.01 0.00 0.00 0.00 0.00 0.00 0.00 0.00 0.00 0.00 0.00 0.00 0.00
0.00 0.00 0.00 0.00 0.00 0.00 0.00 0.00 0.00 0.00 0.00 0.00 0.00 0.01 0.01 0.01 0.02 0.03 0.04 0.04 0.04 0.06 0.08 0.10 0.11 0.12 0.12 0.11 0.08 0.05 0.02 0.01 0.00 0.00 0.00 0.00 0.00 0.00 0.00 0.00 0.00 0.00 0.00
0.00 0.00 0.00 0.00 0.00 0.00 0.00 0.00 0.00 0.00 0.00 0.00 0.00 0.01 0.01 0.01 0.01 0.02 0.03 0.04 0.04 0.06 0.07 0.09 0.10 0.11 0.12 0.12 0.10 0.07 0.04 0.02 0.01 0.00 0.00 0.00 0.00 0.00 0.00 0.00 0.00 0.00 0.00
0.00 0.00 0.00 0.00 0.00 0.00 0.00 0.00 0.00 0.00 0.00 0.00 0.00 0.00 0.01 0.01 0.01 0.02 0.03 0.03 0.04 0.04 0.05 0.06 0.08 0.10 0.11 0.10 0.09 0.07 0.04 0.03 0.02 0.02 0.02 0.02 0.01 0.01 0.00 0.00 0.00 0.00 0.00
0.00 0.00 0.00 0.00 0.00 0.00 0.00 0.00 0.00 0.00 0.00 0.00 0.00 0.00 0.01 0.01 0.01 0.02 0.03 0.03 0.04 0.04 0.05 0.05 0.07 0.08 0.08 0.08 0.07 0.06 0.04 0.04 0.03 0.03 0.03 0.02 0.02 0.01 0.01 0.00 0.00 0.00 0.00
0.00 0.00 0.00 0.00 0.00 0.00 0.00 0.00 0.00 0.00 0.00 0.00 0.00 0.00 0.01 0.01 0.02 0.03 0.03 0.04 0.04 0.04 0.04 0.05 0.05 0.06 0.06 0.06 0.06 0.06 0.06 0.05 0.05 0.05 0.05 0.04 0.02 0.01 0.01 0.00 0.00 0.00 0.00
0.00 0.00 0.00 0.00 0.00 0.00 0.00 0.00 0.00 0.01 0.00 0.01 0.01 0.01 0.01 0.02 0.03 0.03 0.04 0.04 0.04 0.04 0.04 0.04 0.04 0.04 0.04 0.05 0.05 0.06 0.06 0.06 0.06 0.06 0.05 0.03 0.02 0.01 0.01 0.00 0.00 0.00 0.00
0.00 0.00 0.00 0.00 0.01 0.01 0.01 0.01 0.01 0.01 0.01 0.01 0.01 0.01 0.02 0.03 0.04 0.04 0.04 0.04 0.04 0.04 0.03 0.02 0.02 0.02 0.03 0.04 0.04 0.05 0.05 0.05 0.04 0.03 0.03 0.02 0.02 0.01 0.01 0.01 0.00 0.00 0.00
0.00 0.00 0.00 0.01 0.01 0.02 0.02 0.02 0.02 0.02 0.02 0.02 0.01 0.02 0.03 0.04 0.05 0.05 0.04 0.03 0.03 0.02 0.02 0.02 0.02 0.02 0.02 0.03 0.03 0.04 0.04 0.04 0.04 0.04 0.04 0.04 0.03 0.02 0.01 0.01 0.00 0.00 0.00
0.00 0.00 0.00 0.01 0.01 0.01 0.02 0.02 0.02 0.02 0.02 0.02 0.02 0.03 0.05 0.06 0.06 0.05 0.04 0.04 0.04 0.03 0.03 0.03 0.04 0.04 0.05 0.08 0.06 0.05 0.06 0.07 0.07 0.07 0.05 0.03 0.02 0.01 0.00 0.00 0.00 0.00 0.00
0.00 0.00 0.00 0.00 0.00 0.01 0.02 0.02 0.02 0.02 0.03 0.05 0.06 0.09 0.12 0.11 0.09 0.08 0.08 0.08 0.09 0.08 0.08 0.08 0.08 0.09 0.12 0.15 0.14 0.13 0.10 0.09 0.06 0.04 0.02 0.01 0.01 0.00 0.00 0.00 0.00 0.00 0.00
0.00 0.00 0.00 0.00 0.00 0.02 0.04 0.05 0.07 0.10 0.12 0.14 0.18 0.21 0.21 0.21 0.20 0.18 0.19 0.20 0.20 0.19 0.18 0.19 0.20 0.21 0.22 0.20 0.16 0.11 0.08 0.06 0.03 0.02 0.01 0.00 0.00 0.00 0.00 0.00 0.00 0.00 0.00
0.00 0.00 0.00 0.00 0.00 0.01 0.04 0.06 0.10 0.19 0.27 0.28 0.28 0.26 0.26 0.29 0.31 0.31 0.30 0.31 0.33 0.33 0.32 0.29 0.26 0.23 0.19 0.14 0.09 0.06 0.04 0.02 0.01 0.00 0.00 0.00 0.00 0.00 0.00 0.00 0.00 0.00 0.00
0.00 0.00 0.00 0.00 0.01 0.02 0.03 0.06 0.10 0.16 0.22 0.23 0.23 0.25 0.26 0.29 0.30 0.34 0.37 0.34 0.32 0.30 0.28 0.26 0.21 0.15 0.10 0.06 0.03 0.02 0.01 0.00 0.00 0.00 0.00 0.00 0.00 0.00 0.00 0.00 0.00 0.00 0.00
0.00 0.00 0.00 0.01 0.01 0.02 0.03 0.05 0.09 0.11 0.13 0.15 0.18 0.23 0.25 0.27 0.27 0.29 0.30 0.27 0.22 0.17 0.13 0.09 0.07 0.04 0.03 0.01 0.00 0.00 0.00 0.00 0.00 0.00 0.00 0.00 0.00 0.00 0.01 0.01 0.00 0.00 0.00
0.00 0.00 0.00 0.01 0.01 0.02 0.03 0.05 0.08 0.09 0.10 0.11 0.15 0.19 0.19 0.18 0.16 0.14 0.12 0.09 0.07 0.05 0.04 0.02 0.01 0.01 0.00 0.00 0.00 0.00 0.00 0.00 0.00 0.00 0.00 0.00 0.00 0.00 0.00 0.00 0.00 0.00 0.00
0.00 0.00 0.00 0.01 0.01 0.02 0.03 0.04 0.04 0.05 0.05 0.05 0.06 0.06 0.06 0.05 0.03 0.02 0.01 0.01 0.00 0.00 0.00 0.00 0.00 0.00 0.00 0.00 0.00 0.00 0.00 0.00 0.00 0.00 0.00 0.00 0.00 0.00 0.00 0.00 0.00 0.00 0.00
0.00 0.00 0.00 0.00 0.00 0.01 0.01 0.01 0.01 0.01 0.01 0.01 0.01 0.00 0.00 0.00 0.00 0.00 0.00 0.00 0.00 0.00 0.00 0.00 0.00 0.00 0.00 0.00 0.00 0.00 0.00 0.00 0.00 0.00 0.00 0.00 0.00 0.00 0.00 0.00 0.00 0.00 0.00
0.00 0.00 0.00 0.00 0.00 0.00 0.00 0.00 0.00 0.00 0.00 0.00 0.00 0.00 0.00 0.00 0.00 0.00 0.00 0.00 0.00 0.00 0.00 0.00 0.00 0.00 0.00 0.00 0.00 0.00 0.00 0.00 0.00 0.00 0.00 0.00 0.00 0.00 0.00 0.00 0.00 0.00 0.00
0.00 0.00 0.00 0.00 0.00 0.00 0.00 0.00 0.00 0.00 0.00 0.00 0.00 0.00 0.00 0.00 0.00 0.00 0.00 0.00 0.00 0.00 0.00 0.00 0.00 0.00 0.00 0.00 0.00 0.00 0.00 0.00 0.00 0.00 0.00 0.00 0.00 0.00 0.00 0.00 0.00 0.00 0.00
MSLP
1011.82 1011.69 1011.53 1011.34 1011.12 1010.90 1010.72 1010.61 1010.60 1010.69 1010.89 1011.18 1011.52 1011.90 1012.28 1012.66 1013.02 1013.38 1013.75 1014.16 1014.62 1015.15 1015.74 1016.39 1017.09 1017.80 1018.53 1019.23 1019.89 1020.50 1021.06 1021.55 1021.98 1022.35 1022.66 1022.93 1023.15 1023.33 1023.49 1023.62 1023.73 1023.83 1023.92
1011.61 1011.47 1011.30 1011.08 1010.82 1010.55 1010.31 1010.14 1010.07 1010.12 1010.28 1010.54 1010.85 1011.21 1011.56 1011.91 1012.25 1012.59 1012.95 1013.36 1013.84 1014.39 1015.01 1015.70 1016.44 1017.18 1017.92 1018.63 1019.29 1019.90 1020.45 1020.96 1021.42 1021.84 1022.23 1022.58 1022.90 1023.19 1023.43 1023.65 1023.83 1023.98 1024.10
1011.52 1011.37 1011.18 1010.92 1010.63 1010.31 1010.02 1009.79 1009.67 1009.67 1009.79 1010.00 1010.28 1010.58 1010.90 1011.20 1011.50 1011.81 1012.15 1012.55 1013.03 1013.59 1014.23 1014.94 1015.69 1016.44 1017.17 1017.86 1018.51 1019.11 1019.66 1020.18 1020.68 1021.16 1021.63 1022.08 1022.50 1022.89 1023.24 1023.55 1023.80 1024.01 1024.17
1011.55 1011.37 1011.16 1010.88 1010.54 1010.19 1009.85 1009.58 1009.41 1009.36 1009.42 1009.57 1009.79 1010.04 1010.29 1010.54 1010.79 1011.05 1011.37 1011.75 1012.21 1012.78 1013.42 1014.13 1014.87 1015.61 1016.32 1016.99 1017.62 1018.20 1018.76 1019.30 1019.84 1020.39 1020.94 1021.48 1022.01 1022.50 1022.95 1023.33 1023.66 1023.93 1024.14
1011.63 1011.43 1011.19 1010.89 1010.54 1010.15 1009.79 1009.48 1009.26 1009.15 1009.15 1009.23 1009.37 1009.55 1009.73 1009.91 1010.10 1010.32 1010.60 1010.96 1011.42 1011.97 1012.61 1013.31 1014.03 1014.76 1015.45 1016.11 1016.72 1017.30 1017.87 1018.44 1019.03 1019.64 1020.26 1020.89 1021.50 1022.07 1022.59 1023.04 1023.43 1023.74 1023.99
1011.69 1011.49 1011.24 1010.92 1010.56 1010.16 1009.77 1009.43 1009.16 1009.00 1008.93 1008.93 1008.99 1009.08 1009.19 1009.30 1009.44 1009.62 1009.87 1010.21 1010.66 1011.21 1011.84 1012.53 1013.24 1013.96 1014.64 1015.29 1015.90 1016.50 1017.09 1017.70 1018.34 1019.00 1019.69 1020.38 1021.04 1021.66 1022.23 1022.72 1023.13 1023.48 1023.76
1011.68 1011.47 1011.22 1010.91 1010.55 1010.15 1009.75 1009.38 1009.07 1008.85 1008.71 1008.63 1008.61 1008.62 1008.65 1008.70 1008.80 1008.95 1009.19 1009.52 1009.97 1010.52 1011.15 1011.84 1012.55 1013.26 1013.95 1014.61 1015.24 1015.87 1016.50 1017.16 1017.84 1018.56 1019.28 1020.00 1020.69 1021.33 1021.90 1022.40 1022.83 1023.19 1023.49
1011.55 1011.35 1011.12 1010.83 1010.49 1010.10 1009.69 1009.30 1008.96 1008.68 1008.47 1008.31 1008.21 1008.14 1008.11 1008.12 1008.19 1008.33 1008.57 1008.91 1009.37 1009.93 1010.57 1011.27 1011.99 1012.72 1013.42 1014.11 1014.78 1015.45 1016.13 1016.84 1017.57 1018.32 1019.07 1019.80 1020.49 1021.11 1021.66 1022.14 1022.55 1022.90 1023.21
1011.31 1011.14 1010.95 1010.70 1010.38 1010.01 1009.61 1009.20 1008.83 1008.49 1008.21 1007.99 1007.81 1007.69 1007.61 1007.59 1007.65 1007.80 1008.05 1008.42 1008.90 1009.48 1010.14 1010.86 1011.60 1012.34 1013.07 1013.79 1014.51 1015.23 1015.97 1016.73 1017.51 1018.29 1019.05 1019.77 1020.43 1021.02 1021.52 1021.96 1022.33 1022.66 1022.96
1011.05 1010.92 1010.77 1010.56 1010.28 1009.93 1009.54 1009.12 1008.71 1008.33 1007.99 1007.70 1007.47 1007.30 1007.19 1007.16 1007.22 1007.39 1007.67 1008.07 1008.59 1009.20 1009.88 1010.61 1011.36 1012.12 1012.88 1013.65 1014.41 1015.19 1015.99 1016.80 1017.61 1018.41 1019.17 1019.87 1020.50 1021.03 1021.49 1021.87 1022.20 1022.49 1022.77
1010.85 1010.77 1010.67 1010.51 1010.27 1009.94 1009.55 1009.13 1008.69 1008.26 1007.87 1007.53 1007.26 1007.05 1006.93 1006.90 1006.98 1007.18 1007.50 1007.93 1008.47 1009.10 1009.80 1010.54 1011.30 1012.08 1012.86 1013.65 1014.46 1015.28 1016.13 1016.98 1017.82 1018.64 1019.39 1020.07 1020.65 1021.14 1021.53 1021.86 1022.14 1022.39 1022.64
1010.83 1010.81 1010.76 1010.64 1010.42 1010.12 1009.73 1009.29 1008.82 1008.36 1007.93 1007.55 1007.24 1007.01 1006.88 1006.87 1006.97 1007.20 1007.55 1008.01 1008.58 1009.22 1009.92 1010.66 1011.42 1012.19 1012.98 1013.79 1014.62 1015.48 1016.35 1017.23 1018.10 1018.91 1019.66 1020.31 1020.85 1021.29 1021.63 1021.89 1022.12 1022.32 1022.53
1011.06 1011.10 1011.09 1011.00 1010.80 1010.50 1010.11 1009.65 1009.16 1008.67 1008.21 1007.80 1007.47 1007.23 1007.11 1007.11 1007.23 1007.49 1007.86 1008.35 1008.92 1009.57 1010.26 1010.98 1011.72 1012.47 1013.25 1014.06 1014.89 1015.75 1016.64 1017.53 1018.40 1019.21 1019.93 1020.55 1021.05 1021.44 1021.72 1021.93 1022.10 1022.25 1022.40
1011.56 1011.65 1011.67 1011.59 1011.40 1011.10 1010.70 1010.22 1009.72 1009.21 1008.72 1008.30 1007.97 1007.73 1007.61 1007.63 1007.78 1008.05 1008.45 1008.94 1009.51 1010.14 1010.81 1011.50 1012.21 1012.93 1013.68 1014.46 1015.27 1016.12 1016.99 1017.87 1018.71 1019.50 1020.19 1020.76 1021.22 1021.55 1021.77 1021.92 1022.03 1022.12 1022.21
1012.29 1012.41 1012.45 1012.37 1012.17 1011.85 1011.44 1010.96 1010.44 1009.93 1009.45 1009.03 1008.70 1008.48 1008.38 1008.41 1008.58 1008.87 1009.27 1009.77 1010.33 1010.94 1011.57 1012.22 1012.89 1013.57 1014.27 1015.00 1015.78 1016.58 1017.41 1018.24 1019.04 1019.77 1020.41 1020.93 1021.32 1021.59 1021.75 1021.84 1021.88 1021.90 1021.93
1013.15 1013.29 1013.33 1013.24 1013.02 1012.69 1012.26 1011.78 1011.27 1010.77 1010.31 1009.92 1009.62 1009.42 1009.35 1009.41 1009.60 1009.90 1010.30 1010.79 1011.33 1011.91 1012.51 1013.12 1013.74 1014.36 1015.01 1015.68 1016.39 1017.13 1017.89 1018.65 1019.37 1020.03 1020.59 1021.03 1021.35 1021.54 1021.63 1021.65 1021.62 1021.57 1021.53
1014.02 1014.16 1014.18 1014.07 1013.83 1013.49 1013.07 1012.61 1012.13 1011.67 1011.25 1010.91 1010.65 1010.50 1010.46 1010.55 1010.76 1011.07 1011.47 1011.95 1012.47 1013.02 1013.58 1014.14 1014.71 1015.28 1015.86 1016.46 1017.09 1017.74 1018.41 1019.07 1019.69 1020.25 1020.71 1021.06 1021.29 1021.40 1021.41 1021.35 1021.25 1021.14 1021.02
1014.77 1014.89 1014.89 1014.75 1014.51 1014.17 1013.78 1013.36 1012.94 1012.54 1012.20 1011.92 1011.73 1011.63 1011.64 1011.76 1011.99 1012.31 1012.70 1013.16 1013.66 1014.18 1014.71 1015.22 1015.74 1016.24 1016.75 1017.28 1017.82 1018.37 1018.93 1019.47 1019.97 1020.41 1020.76 1021.01 1021.14 1021.17 1021.10 1020.97 1020.81 1020.63 1020.46
1015.31 1015.42 1015.39 1015.24 1015.00 1014.69 1014.35 1013.99 1013.66 1013.36 1013.11 1012.92 1012.81 1012.78 1012.83 1012.99 1013.23 1013.55 1013.94 1014.37 1014.84 1015.33 1015.81 1016.28 1016.74 1017.18 1017.62 1018.05 1018.49 1018.94 1019.38 1019.80 1020.18 1020.50 1020.74 1020.88 1020.92 1020.87 1020.74 1020.55 1020.34 1020.12 1019.91
1015.63 1015.71 1015.66 1015.52 1015.30 1015.05 1014.78 1014.53 1014.30 1014.11 1013.97 1013.88 1013.85 1013.89 1014.00 1014.18 1014.43 1014.74 1015.11 1015.52 1015.95 1016.39 1016.83 1017.24 1017.64 1018.01 1018.37 1018.72 1019.06 1019.39 1019.72 1020.02 1020.29 1020.49 1020.63 1020.68 1020.66 1020.55 1020.37 1020.15 1019.91 1019.66 1019.43
1015.74 1015.80 1015.75 1015.64 1015.48 1015.30 1015.14 1015.00 1014.89 1014.83 1014.80 1014.81 1014.87 1014.96 1015.11 1015.31 1015.55 1015.85 1016.19 1016.56 1016.94 1017.33 1017.70 1018.06 1018.38 1018.68 1018.96 1019.22 1019.47 1019.70 1019.92 1020.12 1020.28 1020.40 1020.46 1020.45 1020.38 1020.24 1020.05 1019.82 1019.57 1019.32 1019.09
1015.69 1015.75 1015.73 1015.67 1015.59 1015.52 1015.47 1015.46 1015.48 1015.54 1015.62 1015.72 1015.84 1015.99 1016.16 1016.36 1016.59 1016.86 1017.15 1017.47 1017.79 1018.12 1018.42 1018.71 1018.96 1019.18 1019.38 1019.55 1019.71 1019.86 1019.99 1020.10 1020.19 1020.25 1020.26 1020.23 1020.14 1020.00 1019.82 1019.60 1019.37 1019.14 1018.91
1015.57 1015.65 1015.69 1015.70 1015.72 1015.77 1015.85 1015.96 1016.10 1016.26 1016.43 1016.61 1016.78 1016.95 1017.13 1017.32 1017.53 1017.75 1018.00 1018.25 1018.51 1018.76 1019.00 1019.20 1019.38 1019.53 1019.64 1019.74 1019.82 1019.89 1019.96 1020.01 1020.06 1020.08 1020.08 1020.05 1019.97 1019.86 1019.71 1019.53 1019.33 1019.12 1018.90
1015.44 1015.57 1015.68 1015.79 1015.93 1016.09 1016.28 1016.51 1016.75 1016.99 1017.23 1017.45 1017.65 1017.84 1018.01 1018.18 1018.35 1018.53 1018.72 1018.91 1019.11 1019.29 1019.45 1019.58 1019.69 1019.76 1019.81 1019.84 1019.85 1019.87 1019.89 1019.91 1019.93 1019.95 1019.95 1019.94 1019.90 1019.82 1019.72 1019.58 1019.42 1019.23 1019.02
1015.37 1015.57 1015.76 1015.98 1016.22 1016.49 1016.78 1017.09 1017.41 1017.71 1017.98 1018.22 1018.43 1018.61 1018.77 1018.91 1019.05 1019.19 1019.33 1019.47 1019.60 1019.72 1019.82 1019.89 1019.93 1019.94 1019.93 1019.90 1019.87 1019.85 1019.84 1019.84 1019.86 1019.88 1019.91 1019.92 1019.92 1019.89 1019.83 1019.73 1019.59 1019.42 1019.21
1015.36 1015.64 1015.94 1016.25 1016.58 1016.93 1017.30 1017.67 1018.02 1018.34 1018.62 1018.86 1019.06 1019.23 1019.37 1019.49 1019.61 1019.72 1019.82 1019.93 1020.02 1020.10 1020.15 1020.17 1020.16 1020.12 1020.06 1020.00 1019.94 1019.89 1019.86 1019.85 1019.87 1019.90 1019.95 1019.99 1020.01 1020.01 1019.98 1019.90 1019.77 1019.60 1019.37
Thickness
5667 5667 5668 5670 5671 5672 5674 5676 5678 5680 5680 5677 5675 5672 5672 5671 5669 5667 5664 5661 5659 5656 5651 5647 5641 5637 5633 5628 5623 5617 5611 5606 5603 5599 5594 5591 5589 5587 5586 5583 5580 5577 5574
5659 5661 5662 5663 5665 5667 5669 5671 5673 5675 5675 5676 5675 5674 5672 5671 5669 5666 5662 5660 5657 5654 5649 5645 5640 5634 5629 5624 5619 5615 5607 5602 5598 5595 5589 5584 5580 5579 5577 5575 5573 5570 5567
5646 5651 5653 5655 5657 5660 5662 5665 5667 5669 5670 5670 5669 5667 5664 5663 5660 5659 5659 5659 5655 5650 5646 5642 5637 5632 5628 5623 5618 5614 5608 5599 5592 5591 5589 5581 5577 5572 5568 5566 5564 5562 5559
5634 5638 5642 5645 5648 5652 5654 5656 5659 5661 5662 5662 5661 5660 5660 5660 5661 5660 5658 5654 5651 5647 5643 5639 5635 5630 5626 5622 5617 5612 5608 5601 5590 5584 5582 5580 5577 5569 5561 5556 5554 5552 5550
5624 5629 5632 5635 5639 5641 5643 5645 5648 5650 5652 5653 5654 5654 5655 5656 5655 5654 5651 5648 5645 5643 5640 5636 5631 5627 5624 5619 5614 5608 5604 5600 5592 5584 5576 5570 5565 5563 5560 5552 5546 5543 5541
5616 5622 5626 5629 5631 5632 5633 5634 5636 5638 5640 5642 5644 5646 5647 5648 5646 5645 5643 5640 5636 5634 5633 5630 5627 5624 5620 5615 5610 5604 5600 5596 5591 5584 5578 5571 5564 5557 5553 5547 5539 5534 5530
5607 5613 5617 5619 5621 5622 5622 5623 5624 5626 5627 5628 5631 5635 5638 5638 5638 5638 5636 5633 5630 5627 5627 5624 5621 5618 5614 5609 5603 5597 5593 5589 5585 5579 5572 5567 5561 5554 5547 5540 5531 5524 5518
5600 5604 5606 5608 5609 5610 5611 5611 5612 5613 5614 5614 5617 5620 5624 5626 5627 5627 5626 5626 5626 5625 5623 5618 5614 5610 5605 5600 5595 5589 5584 5580 5575 5570 5564 5558 5551 5546 5539 5532 5521 5512 5505
5594 5596 5597 5598 5598 5599 5600 5599 5598 5599 5600 5600 5602 5604 5608 5610 5613 5613 5613 5614 5615 5613 5610 5607 5603 5600 5596 5591 5586 5580 5575 5570 5564 5558 5552 5546 5539 5533 5528 5522 5515 5506 5498
5587 5587 5587 5587 5587 5586 5586 5585 5584 5584 5584 5584 5585 5588 5590 5592 5595 5596 5597 5599 5599 5599 5597 5595 5592 5588 5584 5580 5575 5570 5564 5559 5552 5546 5539 5532 5525 5519 5514 5509 5503 5497 5490
5575 5575 5574 5573 5572 5571 5570 5568 5567 5566 5565 5565 5565 5567 5570 5572 5575 5577 5579 5580 5581 5582 5582 5580 5579 5576 5572 5568 5563 5559 5554 5548 5541 5534 5526 5518 5512 5505 5500 5495 5489 5483 5476
5565 5562 5560 5559 5557 5555 5552 5549 5546 5544 5544 5543 5544 5546 5548 5551 5553 5557 5559 5561 5562 5564 5565 5564 5563 5561 5558 5555 5552 5547 5542 5536 5528 5520 5513 5505 5500 5493 5488 5482 5476 5470 5463
5555 5551 5547 5544 5541 5537 5533 5528 5524 5521 5520 5520 5521 5524 5527 5530 5533 5537 5540 5543 5545 5546 5548 5548 5548 5547 5544 5542 5539 5535 5528 5522 5515 5508 5501 5495 5489 5481 5476 5470 5464 5458 5451
5542 5537 5534 5531 5527 5522 5516 5511 5507 5502 5500 5500 5501 5504 5508 5511 5515 5519 5523 5526 5528 5530 5531 5532 5531 5531 5530 5528 5525 5521 5515 5508 5501 5495 5490 5484 5478 5471 5465 5459 5452 5445 5438
5531 5526 5522 5518 5514 5509 5503 5498 5492 5488 5486 5485 5485 5488 5492 5496 5499 5503 5506 5509 5511 5513 5514 5515 5515 5515 5515 5513 5511 5507 5501 5495 5489 5483 5478 5472 5466 5460 5454 5448 5440 5433 5425
5520 5516 5511 5508 5503 5499 5493 5487 5481 5478 5476 5475 5474 5475 5478 5481 5483 5486 5489 5491 5493 5495 5498 5499 5500 5501 5501 5499 5497 5494 5488 5482 5476 5470 5464 5459 5453 5448 5442 5437 5430 5423 5414
5511 5506 5501 5498 5495 5490 5486 5479 5473 5470 5468 5465 5463 5464 5466 5467 5469 5471 5473 5475 5477 5480 5483 5485 5487 5487 5486 5485 5483 5479 5473 5468 5462 5457 5451 5446 5440 5434 5428 5422 5416 5409 5401
5502 5497 5494 5492 5489 5485 5481 5475 5470 5466 5461 5458 5455 5454 5455 5455 5457 5458 5460 5462 5465 5468 5470 5472 5474 5475 5474 5473 5469 5465 5460 5455 5449 5444 5438 5432 5426 5421 5416 5410 5403 5394 5386
5497 5492 5490 5487 5485 5482 5477 5473 5468 5463 5458 5454 5451 5450 5449 5449 5450 5451 5452 5454 5457 5458 5460 5461 5463 5463 5462 5461 5458 5454 5450 5443 5436 5431 5426 5420 5414 5410 5406 5400 5391 5382 5373
5493 5490 5487 5485 5482 5479 5475 5471 5466 5462 5458 5453 5450 5448 5448 5448 5448 5448 5449 5450 5452 5452 5452 5452 5452 5452 5452 5451 5448 5443 5438 5431 5424 5418 5413 5409 5404 5400 5395 5387 5378 5369 5360
5491 5488 5485 5482 5479 5476 5473 5469 5465 5461 5457 5454 5451 5449 5448 5447 5446 5446 5445 5445 5445 5444 5443 5442 5441 5441 5442 5441 5439 5433 5426 5420 5413 5408 5402 5397 5392 5387 5381 5373 5363 5354 5348
5489 5486 5482 5479 5475 5473 5470 5466 5462 5458 5456 5453 5450 5448 5446 5445 5443 5443 5440 5439 5438 5437 5435 5434 5431 5430 5429 5429 5426 5423 5417 5412 5405 5399 5392 5386 5380 5374 5365 5355 5346 5338 5330
5487 5483 5480 5475 5472 5469 5466 5463 5458 5456 5454 5451 5447 5444 5442 5440 5439 5437 5435 5433 5431 5430 5428 5426 5422 5419 5418 5416 5414 5411 5406 5401 5395 5388 5382 5375 5366 5356 5344 5334 5327 5318 5307
5484 5480 5477 5472 5468 5465 5462 5459 5456 5453 5450 5446 5442 5439 5437 5434 5432 5432 5430 5427 5424 5422 5421 5418 5413 5410 5408 5405 5402 5398 5394 5389 5383 5375 5366 5357 5346 5335 5325 5315 5306 5298 5292
5481 5477 5473 5469 5464 5461 5458 5455 5452 5449 5445 5440 5437 5434 5431 5428 5426 5425 5422 5420 5417 5416 5414 5410 5407 5403 5399 5398 5396 5390 5385 5378 5370 5361 5348 5337 5326 5315 5307 5298 5291 5286 5283
5479 5474 5470 5465 5461 5457 5453 5450 5448 5445 5442 5437 5432 5429 5426 5423 5421 5419 5417 5417 5415 5413 5409 5405 5401 5397 5395 5391 5386 5380 5373 5365 5357 5344 5331 5319 5308 5298 5291 5285 5280 5278 5275